owner,sensor,date,latitude,longitude,vertical_datum,sea_water_practical_salinity,qcFlag 
DISL,ioos:station:DISL:CATA:1,2012-07-01T00:00:00Z,30.3085,-88.1395,2.031,21.94,1111122 
DISL,ioos:station:DISL:CATA:1,2012-07-01T00:30:00Z,30.3085,-88.1395,2.025,21.72,1111122 
DISL,ioos:station:DISL:CATA:1,2012-07-01T01:00:00Z,30.3085,-88.1395,2.017,22.13,1111122 
DISL,ioos:station:DISL:CATA:1,2012-07-01T01:30:00Z,30.3085,-88.1395,2.026,22.49,1111122 
DISL,ioos:station:DISL:CATA:1,2012-07-01T02:00:00Z,30.3085,-88.1395,2.041,22.27,1111122 
DISL,ioos:station:DISL:CATA:1,2012-07-01T02:30:00Z,30.3085,-88.1395,2.072,21.38,1111122 
DISL,ioos:station:DISL:CATA:1,2012-07-01T03:00:00Z,30.3085,-88.1395,2.098,21.64,1111122 
DISL,ioos:station:DISL:CATA:1,2012-07-01T03:30:00Z,30.3085,-88.1395,2.122,21.59,1111122 
DISL,ioos:station:DISL:CATA:1,2012-07-01T04:00:00Z,30.3085,-88.1395,2.14,21.62,1111122 
DISL,ioos:station:DISL:CATA:1,2012-07-01T04:30:00Z,30.3085,-88.1395,2.171,21.5,1111122 
DISL,ioos:station:DISL:CATA:1,2012-07-01T05:00:00Z,30.3085,-88.1395,2.205,19.95,1111122 
DISL,ioos:station:DISL:CATA:1,2012-07-01T05:30:00Z,30.3085,-88.1395,2.241,19.5,1111122 
DISL,ioos:station:DISL:CATA:1,2012-07-01T06:00:00Z,30.3085,-88.1395,2.268,19.76,1111122 
DISL,ioos:station:DISL:CATA:1,2012-07-01T06:30:00Z,30.3085,-88.1395,2.304,20.09,1111122 
DISL,ioos:station:DISL:CATA:1,2012-07-01T07:00:00Z,30.3085,-88.1395,2.331,20.51,1111122 
DISL,ioos:station:DISL:CATA:1,2012-07-01T07:30:00Z,30.3085,-88.1395,2.361,20.84,1111122 
DISL,ioos:station:DISL:CATA:1,2012-07-01T08:00:00Z,30.3085,-88.1395,2.385,21.13,1111122 
DISL,ioos:station:DISL:CATA:1,2012-07-01T08:30:00Z,30.3085,-88.1395,2.419,21.05,1111122 
DISL,ioos:station:DISL:CATA:1,2012-07-01T09:00:00Z,30.3085,-88.1395,2.454,20.96,1111122 
DISL,ioos:station:DISL:CATA:1,2012-07-01T09:30:00Z,30.3085,-88.1395,2.491,20.78,1111122 
DISL,ioos:station:DISL:CATA:1,2012-07-01T10:00:00Z,30.3085,-88.1395,2.526,21.25,1111122 
DISL,ioos:station:DISL:CATA:1,2012-07-01T10:30:00Z,30.3085,-88.1395,2.56,21.85,1111122 
DISL,ioos:station:DISL:CATA:1,2012-07-01T11:00:00Z,30.3085,-88.1395,2.588,21.8,1111122 
DISL,ioos:station:DISL:CATA:1,2012-07-01T11:30:00Z,30.3085,-88.1395,2.606,22.1,1111122 
DISL,ioos:station:DISL:CATA:1,2012-07-01T12:00:00Z,30.3085,-88.1395,2.626,22.05,1111122 
DISL,ioos:station:DISL:CATA:1,2012-07-01T12:30:00Z,30.3085,-88.1395,2.632,21.84,1111122 
DISL,ioos:station:DISL:CATA:1,2012-07-01T13:00:00Z,30.3085,-88.1395,2.638,21.74,1111122 
DISL,ioos:station:DISL:CATA:1,2012-07-01T13:30:00Z,30.3085,-88.1395,2.629,21.37,1111122 
DISL,ioos:station:DISL:CATA:1,2012-07-01T14:00:00Z,30.3085,-88.1395,2.621,20.84,1111122 
DISL,ioos:station:DISL:CATA:1,2012-07-01T14:30:00Z,30.3085,-88.1395,2.608,21.22,1111122 
DISL,ioos:station:DISL:CATA:1,2012-07-01T15:00:00Z,30.3085,-88.1395,2.593,21.87,1111122 
DISL,ioos:station:DISL:CATA:1,2012-07-01T15:30:00Z,30.3085,-88.1395,2.578,22.33,1111122 
DISL,ioos:station:DISL:CATA:1,2012-07-01T16:00:00Z,30.3085,-88.1395,2.556,22.32,1111122 
DISL,ioos:station:DISL:CATA:1,2012-07-01T16:30:00Z,30.3085,-88.1395,2.524,22.34,1111122 
DISL,ioos:station:DISL:CATA:1,2012-07-01T17:00:00Z,30.3085,-88.1395,2.499,22.11,1111122 
DISL,ioos:station:DISL:CATA:1,2012-07-01T17:30:00Z,30.3085,-88.1395,2.453,21.74,1111122 
DISL,ioos:station:DISL:CATA:1,2012-07-01T18:00:00Z,30.3085,-88.1395,2.407,21.43,1111122 
DISL,ioos:station:DISL:CATA:1,2012-07-01T18:30:00Z,30.3085,-88.1395,2.358,21.58,1111122 
DISL,ioos:station:DISL:CATA:1,2012-07-01T19:00:00Z,30.3085,-88.1395,2.31,21.88,1111122 
DISL,ioos:station:DISL:CATA:1,2012-07-01T19:30:00Z,30.3085,-88.1395,2.262,22.03,1111122 
DISL,ioos:station:DISL:CATA:1,2012-07-01T20:00:00Z,30.3085,-88.1395,2.215,22.19,1111122 
DISL,ioos:station:DISL:CATA:1,2012-07-01T20:30:00Z,30.3085,-88.1395,2.168,22.42,1111122 
DISL,ioos:station:DISL:CATA:1,2012-07-01T21:00:00Z,30.3085,-88.1395,2.12,22.47,1111122 
DISL,ioos:station:DISL:CATA:1,2012-07-01T21:30:00Z,30.3085,-88.1395,2.077,22.53,1111122 
DISL,ioos:station:DISL:CATA:1,2012-07-01T22:00:00Z,30.3085,-88.1395,2.04,22.68,1111122 
DISL,ioos:station:DISL:CATA:1,2012-07-01T22:30:00Z,30.3085,-88.1395,2.012,22.65,1111122 
DISL,ioos:station:DISL:CATA:1,2012-07-01T23:00:00Z,30.3085,-88.1395,1.986,22.51,1111122 
DISL,ioos:station:DISL:CATA:1,2012-07-01T23:30:00Z,30.3085,-88.1395,1.967,22.44,1111122 
DISL,ioos:station:DISL:CATA:1,2012-07-02T00:00:00Z,30.3085,-88.1395,1.955,22.29,1111122 
DISL,ioos:station:DISL:CATA:1,2012-07-02T00:30:00Z,30.3085,-88.1395,1.951,22.22,1111122 
DISL,ioos:station:DISL:CATA:1,2012-07-02T01:00:00Z,30.3085,-88.1395,1.96,22.22,1111122 
DISL,ioos:station:DISL:CATA:1,2012-07-02T01:30:00Z,30.3085,-88.1395,1.961,22.21,1111122 
DISL,ioos:station:DISL:CATA:1,2012-07-02T02:00:00Z,30.3085,-88.1395,1.962,22.07,1111122 
DISL,ioos:station:DISL:CATA:1,2012-07-02T02:30:00Z,30.3085,-88.1395,1.963,22.28,1111122 
DISL,ioos:station:DISL:CATA:1,2012-07-02T03:00:00Z,30.3085,-88.1395,1.984,22.31,1111122 
DISL,ioos:station:DISL:CATA:1,2012-07-02T03:30:00Z,30.3085,-88.1395,1.999,22.23,1111122 
DISL,ioos:station:DISL:CATA:1,2012-07-02T04:00:00Z,30.3085,-88.1395,2.025,22.37,1111122 
DISL,ioos:station:DISL:CATA:1,2012-07-02T04:30:00Z,30.3085,-88.1395,2.043,22.62,1111122 
DISL,ioos:station:DISL:CATA:1,2012-07-02T05:00:00Z,30.3085,-88.1395,2.073,22.14,1111122 
DISL,ioos:station:DISL:CATA:1,2012-07-02T05:30:00Z,30.3085,-88.1395,2.109,21.15,1111122 
DISL,ioos:station:DISL:CATA:1,2012-07-02T06:00:00Z,30.3085,-88.1395,2.133,20.41,1111122 
DISL,ioos:station:DISL:CATA:1,2012-07-02T06:30:00Z,30.3085,-88.1395,2.16,20.62,1111122 
DISL,ioos:station:DISL:CATA:1,2012-07-02T07:00:00Z,30.3085,-88.1395,2.182,20.78,1111122 
DISL,ioos:station:DISL:CATA:1,2012-07-02T07:30:00Z,30.3085,-88.1395,2.206,20.51,1111122 
DISL,ioos:station:DISL:CATA:1,2012-07-02T08:00:00Z,30.3085,-88.1395,2.245,20.75,1111122 
DISL,ioos:station:DISL:CATA:1,2012-07-02T08:30:00Z,30.3085,-88.1395,2.276,21.04,1111122 
DISL,ioos:station:DISL:CATA:1,2012-07-02T09:00:00Z,30.3085,-88.1395,2.294,22.0,1111122 
DISL,ioos:station:DISL:CATA:1,2012-07-02T09:30:00Z,30.3085,-88.1395,2.323,23.27,1111122 
DISL,ioos:station:DISL:CATA:1,2012-07-02T10:00:00Z,30.3085,-88.1395,2.362,22.95,1111122 
DISL,ioos:station:DISL:CATA:1,2012-07-02T10:30:00Z,30.3085,-88.1395,2.384,22.77,1111122 
DISL,ioos:station:DISL:CATA:1,2012-07-02T11:00:00Z,30.3085,-88.1395,2.423,22.65,1111122 
DISL,ioos:station:DISL:CATA:1,2012-07-02T11:30:00Z,30.3085,-88.1395,2.479,22.51,1111122 
DISL,ioos:station:DISL:CATA:1,2012-07-02T12:00:00Z,30.3085,-88.1395,2.512,22.71,1111122 
DISL,ioos:station:DISL:CATA:1,2012-07-02T12:30:00Z,30.3085,-88.1395,2.532,23.13,1111122 
DISL,ioos:station:DISL:CATA:1,2012-07-02T13:00:00Z,30.3085,-88.1395,2.6,22.67,1111122 
DISL,ioos:station:DISL:CATA:1,2012-07-02T13:30:00Z,30.3085,-88.1395,2.589,23.28,1111122 
DISL,ioos:station:DISL:CATA:1,2012-07-02T14:00:00Z,30.3085,-88.1395,2.55,23.32,1111122 
DISL,ioos:station:DISL:CATA:1,2012-07-02T14:30:00Z,30.3085,-88.1395,2.555,23.01,1111122 
DISL,ioos:station:DISL:CATA:1,2012-07-02T15:00:00Z,30.3085,-88.1395,2.58,22.95,1111122 
DISL,ioos:station:DISL:CATA:1,2012-07-02T15:30:00Z,30.3085,-88.1395,2.584,22.85,1111122 
DISL,ioos:station:DISL:CATA:1,2012-07-02T16:00:00Z,30.3085,-88.1395,2.571,22.54,1111122 
DISL,ioos:station:DISL:CATA:1,2012-07-02T16:30:00Z,30.3085,-88.1395,2.539,22.86,1111122 
DISL,ioos:station:DISL:CATA:1,2012-07-02T17:00:00Z,30.3085,-88.1395,2.556,23.42,1111122 
DISL,ioos:station:DISL:CATA:1,2012-07-02T17:30:00Z,30.3085,-88.1395,2.503,22.84,1111122 
DISL,ioos:station:DISL:CATA:1,2012-07-02T18:00:00Z,30.3085,-88.1395,2.477,22.09,1111122 
DISL,ioos:station:DISL:CATA:1,2012-07-02T18:30:00Z,30.3085,-88.1395,2.44,22.15,1111122 
DISL,ioos:station:DISL:CATA:1,2012-07-02T19:00:00Z,30.3085,-88.1395,2.399,21.93,1111122 
DISL,ioos:station:DISL:CATA:1,2012-07-02T19:30:00Z,30.3085,-88.1395,2.332,22.09,1111122 
DISL,ioos:station:DISL:CATA:1,2012-07-02T20:00:00Z,30.3085,-88.1395,2.275,22.09,1111122 
DISL,ioos:station:DISL:CATA:1,2012-07-02T20:30:00Z,30.3085,-88.1395,2.227,22.11,1111122 
DISL,ioos:station:DISL:CATA:1,2012-07-02T21:00:00Z,30.3085,-88.1395,2.19,22.0,1111122 
DISL,ioos:station:DISL:CATA:1,2012-07-02T21:30:00Z,30.3085,-88.1395,2.161,22.21,1111122 
DISL,ioos:station:DISL:CATA:1,2012-07-02T22:00:00Z,30.3085,-88.1395,2.185,22.3,1111122 
DISL,ioos:station:DISL:CATA:1,2012-07-02T22:30:00Z,30.3085,-88.1395,2.08,22.33,1111122 
DISL,ioos:station:DISL:CATA:1,2012-07-02T23:00:00Z,30.3085,-88.1395,1.958,22.26,1111122 
DISL,ioos:station:DISL:CATA:1,2012-07-02T23:30:00Z,30.3085,-88.1395,1.897,22.49,1111122 
DISL,ioos:station:DISL:CATA:1,2012-07-03T00:00:00Z,30.3085,-88.1395,1.894,22.51,1111122 
DISL,ioos:station:DISL:CATA:1,2012-07-03T00:30:00Z,30.3085,-88.1395,1.933,22.46,1111122 
DISL,ioos:station:DISL:CATA:1,2012-07-03T01:00:00Z,30.3085,-88.1395,1.948,22.32,1111122 
DISL,ioos:station:DISL:CATA:1,2012-07-03T01:30:00Z,30.3085,-88.1395,1.961,22.02,1111122 
DISL,ioos:station:DISL:CATA:1,2012-07-03T02:00:00Z,30.3085,-88.1395,1.923,21.95,1111122 
DISL,ioos:station:DISL:CATA:1,2012-07-03T02:30:00Z,30.3085,-88.1395,1.948,21.85,1111122 
DISL,ioos:station:DISL:CATA:1,2012-07-03T03:00:00Z,30.3085,-88.1395,1.995,21.82,1111122 
DISL,ioos:station:DISL:CATA:1,2012-07-03T03:30:00Z,30.3085,-88.1395,2.002,21.72,1111122 
DISL,ioos:station:DISL:CATA:1,2012-07-03T04:00:00Z,30.3085,-88.1395,2.003,21.82,1111122 
DISL,ioos:station:DISL:CATA:1,2012-07-03T04:30:00Z,30.3085,-88.1395,2.048,21.84,1111122 
DISL,ioos:station:DISL:CATA:1,2012-07-03T05:00:00Z,30.3085,-88.1395,2.066,21.87,1111122 
DISL,ioos:station:DISL:CATA:1,2012-07-03T05:30:00Z,30.3085,-88.1395,2.073,21.88,1111122 
DISL,ioos:station:DISL:CATA:1,2012-07-03T06:00:00Z,30.3085,-88.1395,2.095,21.89,1111122 
DISL,ioos:station:DISL:CATA:1,2012-07-03T06:30:00Z,30.3085,-88.1395,2.129,21.87,1111122 
DISL,ioos:station:DISL:CATA:1,2012-07-03T07:00:00Z,30.3085,-88.1395,2.161,21.9,1111122 
DISL,ioos:station:DISL:CATA:1,2012-07-03T07:30:00Z,30.3085,-88.1395,2.188,21.76,1111122 
DISL,ioos:station:DISL:CATA:1,2012-07-03T08:00:00Z,30.3085,-88.1395,2.225,21.71,1111122 
DISL,ioos:station:DISL:CATA:1,2012-07-03T08:30:00Z,30.3085,-88.1395,2.255,21.15,1111122 
DISL,ioos:station:DISL:CATA:1,2012-07-03T09:00:00Z,30.3085,-88.1395,2.274,21.33,1111122 
DISL,ioos:station:DISL:CATA:1,2012-07-03T09:30:00Z,30.3085,-88.1395,2.305,21.44,1111122 
DISL,ioos:station:DISL:CATA:1,2012-07-03T10:00:00Z,30.3085,-88.1395,2.348,21.46,1111122 
DISL,ioos:station:DISL:CATA:1,2012-07-03T10:30:00Z,30.3085,-88.1395,2.38,21.59,1111122 
DISL,ioos:station:DISL:CATA:1,2012-07-03T11:00:00Z,30.3085,-88.1395,2.415,21.65,1111122 
DISL,ioos:station:DISL:CATA:1,2012-07-03T11:30:00Z,30.3085,-88.1395,2.455,21.69,1111122 
DISL,ioos:station:DISL:CATA:1,2012-07-03T12:00:00Z,30.3085,-88.1395,2.499,21.88,1111122 
DISL,ioos:station:DISL:CATA:1,2012-07-03T12:30:00Z,30.3085,-88.1395,2.538,21.84,1111122 
DISL,ioos:station:DISL:CATA:1,2012-07-03T13:00:00Z,30.3085,-88.1395,2.564,22.25,1111122 
DISL,ioos:station:DISL:CATA:1,2012-07-03T13:30:00Z,30.3085,-88.1395,2.591,21.87,1111122 
DISL,ioos:station:DISL:CATA:1,2012-07-03T14:00:00Z,30.3085,-88.1395,2.604,21.66,1111122 
DISL,ioos:station:DISL:CATA:1,2012-07-03T14:30:00Z,30.3085,-88.1395,2.616,21.56,1111122 
DISL,ioos:station:DISL:CATA:1,2012-07-03T15:00:00Z,30.3085,-88.1395,2.619,21.62,1111122 
DISL,ioos:station:DISL:CATA:1,2012-07-03T15:30:00Z,30.3085,-88.1395,2.614,21.65,1111122 
DISL,ioos:station:DISL:CATA:1,2012-07-03T16:00:00Z,30.3085,-88.1395,2.607,21.57,1111122 
DISL,ioos:station:DISL:CATA:1,2012-07-03T16:30:00Z,30.3085,-88.1395,2.594,21.57,1111122 
DISL,ioos:station:DISL:CATA:1,2012-07-03T17:00:00Z,30.3085,-88.1395,2.591,21.67,1111122 
DISL,ioos:station:DISL:CATA:1,2012-07-03T17:30:00Z,30.3085,-88.1395,2.579,22.13,1111122 
DISL,ioos:station:DISL:CATA:1,2012-07-03T18:00:00Z,30.3085,-88.1395,2.555,21.89,1111122 
DISL,ioos:station:DISL:CATA:1,2012-07-03T18:30:00Z,30.3085,-88.1395,2.531,21.75,1111122 
DISL,ioos:station:DISL:CATA:1,2012-07-03T19:00:00Z,30.3085,-88.1395,2.49,21.33,1111122 
DISL,ioos:station:DISL:CATA:1,2012-07-03T19:30:00Z,30.3085,-88.1395,2.44,21.24,1111122 
DISL,ioos:station:DISL:CATA:1,2012-07-03T20:00:00Z,30.3085,-88.1395,2.391,21.08,1111122 
DISL,ioos:station:DISL:CATA:1,2012-07-03T20:30:00Z,30.3085,-88.1395,2.35,20.99,1111122 
DISL,ioos:station:DISL:CATA:1,2012-07-03T21:00:00Z,30.3085,-88.1395,2.294,20.87,1111122 
DISL,ioos:station:DISL:CATA:1,2012-07-03T21:30:00Z,30.3085,-88.1395,2.24,20.99,1111122 
DISL,ioos:station:DISL:CATA:1,2012-07-03T22:00:00Z,30.3085,-88.1395,2.192,20.85,1111122 
DISL,ioos:station:DISL:CATA:1,2012-07-03T22:30:00Z,30.3085,-88.1395,2.163,20.68,1111122 
DISL,ioos:station:DISL:CATA:1,2012-07-03T23:00:00Z,30.3085,-88.1395,2.115,20.53,1111122 
DISL,ioos:station:DISL:CATA:1,2012-07-03T23:30:00Z,30.3085,-88.1395,2.058,20.62,1111122 
DISL,ioos:station:DISL:CATA:1,2012-07-04T00:00:00Z,30.3085,-88.1395,1.998,20.76,1111122 
DISL,ioos:station:DISL:CATA:1,2012-07-04T00:30:00Z,30.3085,-88.1395,1.983,20.8,1111122 
DISL,ioos:station:DISL:CATA:1,2012-07-04T01:00:00Z,30.3085,-88.1395,1.976,20.78,1111122 
DISL,ioos:station:DISL:CATA:1,2012-07-04T01:30:00Z,30.3085,-88.1395,1.968,20.62,1111122 
DISL,ioos:station:DISL:CATA:1,2012-07-04T02:00:00Z,30.3085,-88.1395,1.96,20.53,1111122 
DISL,ioos:station:DISL:CATA:1,2012-07-04T02:30:00Z,30.3085,-88.1395,1.955,20.51,1111122 
DISL,ioos:station:DISL:CATA:1,2012-07-04T03:00:00Z,30.3085,-88.1395,1.965,20.47,1111122 
DISL,ioos:station:DISL:CATA:1,2012-07-04T03:30:00Z,30.3085,-88.1395,1.957,20.47,1111122 
DISL,ioos:station:DISL:CATA:1,2012-07-04T04:00:00Z,30.3085,-88.1395,1.938,20.41,1111122 
DISL,ioos:station:DISL:CATA:1,2012-07-04T04:30:00Z,30.3085,-88.1395,1.962,20.4,1111122 
DISL,ioos:station:DISL:CATA:1,2012-07-04T05:00:00Z,30.3085,-88.1395,1.997,20.22,1111122 
DISL,ioos:station:DISL:CATA:1,2012-07-04T05:30:00Z,30.3085,-88.1395,2.022,20.13,1111122 
DISL,ioos:station:DISL:CATA:1,2012-07-04T06:00:00Z,30.3085,-88.1395,2.068,20.08,1111122 
DISL,ioos:station:DISL:CATA:1,2012-07-04T06:30:00Z,30.3085,-88.1395,2.092,20.13,1111122 
DISL,ioos:station:DISL:CATA:1,2012-07-04T07:00:00Z,30.3085,-88.1395,2.107,20.17,1111122 
DISL,ioos:station:DISL:CATA:1,2012-07-04T07:30:00Z,30.3085,-88.1395,2.126,20.17,1111122 
DISL,ioos:station:DISL:CATA:1,2012-07-04T08:00:00Z,30.3085,-88.1395,2.151,20.23,1111122 
DISL,ioos:station:DISL:CATA:1,2012-07-04T08:30:00Z,30.3085,-88.1395,2.174,20.33,1111122 
DISL,ioos:station:DISL:CATA:1,2012-07-04T09:00:00Z,30.3085,-88.1395,2.207,20.33,1111122 
DISL,ioos:station:DISL:CATA:1,2012-07-04T09:30:00Z,30.3085,-88.1395,2.236,20.54,1111122 
DISL,ioos:station:DISL:CATA:1,2012-07-04T10:00:00Z,30.3085,-88.1395,2.266,20.7,1111122 
DISL,ioos:station:DISL:CATA:1,2012-07-04T10:30:00Z,30.3085,-88.1395,2.298,20.77,1111122 
DISL,ioos:station:DISL:CATA:1,2012-07-04T11:00:00Z,30.3085,-88.1395,2.332,20.78,1111122 
DISL,ioos:station:DISL:CATA:1,2012-07-04T11:30:00Z,30.3085,-88.1395,2.389,20.87,1111122 
DISL,ioos:station:DISL:CATA:1,2012-07-04T12:00:00Z,30.3085,-88.1395,2.428,20.72,1111122 
DISL,ioos:station:DISL:CATA:1,2012-07-04T12:30:00Z,30.3085,-88.1395,2.457,20.55,1111122 
DISL,ioos:station:DISL:CATA:1,2012-07-04T13:00:00Z,30.3085,-88.1395,2.49,20.6,1111122 
DISL,ioos:station:DISL:CATA:1,2012-07-04T13:30:00Z,30.3085,-88.1395,2.529,20.75,1111122 
DISL,ioos:station:DISL:CATA:1,2012-07-04T14:00:00Z,30.3085,-88.1395,2.565,20.89,1111122 
DISL,ioos:station:DISL:CATA:1,2012-07-04T14:30:00Z,30.3085,-88.1395,2.575,20.99,1111122 
DISL,ioos:station:DISL:CATA:1,2012-07-04T15:00:00Z,30.3085,-88.1395,2.595,21.13,1111122 
DISL,ioos:station:DISL:CATA:1,2012-07-04T15:30:00Z,30.3085,-88.1395,2.605,21.19,1111122 
DISL,ioos:station:DISL:CATA:1,2012-07-04T16:00:00Z,30.3085,-88.1395,2.618,21.17,1111122 
DISL,ioos:station:DISL:CATA:1,2012-07-04T16:30:00Z,30.3085,-88.1395,2.615,21.43,1111122 
DISL,ioos:station:DISL:CATA:1,2012-07-04T17:00:00Z,30.3085,-88.1395,2.63,21.79,1111122 
DISL,ioos:station:DISL:CATA:1,2012-07-04T17:30:00Z,30.3085,-88.1395,2.58,21.93,1111122 
DISL,ioos:station:DISL:CATA:1,2012-07-04T18:00:00Z,30.3085,-88.1395,2.577,21.94,1111122 
DISL,ioos:station:DISL:CATA:1,2012-07-04T18:30:00Z,30.3085,-88.1395,2.587,22.01,1111122 
DISL,ioos:station:DISL:CATA:1,2012-07-04T19:00:00Z,30.3085,-88.1395,2.55,21.97,1111122 
DISL,ioos:station:DISL:CATA:1,2012-07-04T19:30:00Z,30.3085,-88.1395,2.509,21.82,1111122 
DISL,ioos:station:DISL:CATA:1,2012-07-04T20:00:00Z,30.3085,-88.1395,2.479,22.59,1111122 
DISL,ioos:station:DISL:CATA:1,2012-07-04T20:30:00Z,30.3085,-88.1395,2.449,22.46,1111122 
DISL,ioos:station:DISL:CATA:1,2012-07-04T21:00:00Z,30.3085,-88.1395,2.398,20.26,1111122 
DISL,ioos:station:DISL:CATA:1,2012-07-04T21:30:00Z,30.3085,-88.1395,2.334,19.91,1111122 
DISL,ioos:station:DISL:CATA:1,2012-07-04T22:00:00Z,30.3085,-88.1395,2.276,19.96,1111122 
DISL,ioos:station:DISL:CATA:1,2012-07-04T22:30:00Z,30.3085,-88.1395,2.232,20.02,1111122 
DISL,ioos:station:DISL:CATA:1,2012-07-04T23:00:00Z,30.3085,-88.1395,2.188,20.16,1111122 
DISL,ioos:station:DISL:CATA:1,2012-07-04T23:30:00Z,30.3085,-88.1395,2.126,20.27,1111122 
DISL,ioos:station:DISL:CATA:1,2012-07-05T00:00:00Z,30.3085,-88.1395,2.086,20.24,1111122 
DISL,ioos:station:DISL:CATA:1,2012-07-05T00:30:00Z,30.3085,-88.1395,2.058,20.17,1111122 
DISL,ioos:station:DISL:CATA:1,2012-07-05T01:00:00Z,30.3085,-88.1395,2.035,20.01,1111122 
DISL,ioos:station:DISL:CATA:1,2012-07-05T01:30:00Z,30.3085,-88.1395,2.008,19.89,1111122 
DISL,ioos:station:DISL:CATA:1,2012-07-05T02:00:00Z,30.3085,-88.1395,2.0,19.68,1111122 
DISL,ioos:station:DISL:CATA:1,2012-07-05T02:30:00Z,30.3085,-88.1395,1.998,19.5,1111122 
DISL,ioos:station:DISL:CATA:1,2012-07-05T03:00:00Z,30.3085,-88.1395,1.984,19.77,1111122 
DISL,ioos:station:DISL:CATA:1,2012-07-05T03:30:00Z,30.3085,-88.1395,1.982,19.59,1111122 
DISL,ioos:station:DISL:CATA:1,2012-07-05T04:00:00Z,30.3085,-88.1395,1.983,19.68,1111122 
DISL,ioos:station:DISL:CATA:1,2012-07-05T04:30:00Z,30.3085,-88.1395,1.985,19.64,1111122 
DISL,ioos:station:DISL:CATA:1,2012-07-05T05:00:00Z,30.3085,-88.1395,2.007,19.49,1111122 
DISL,ioos:station:DISL:CATA:1,2012-07-05T05:30:00Z,30.3085,-88.1395,2.032,19.11,1111122 
DISL,ioos:station:DISL:CATA:1,2012-07-05T06:00:00Z,30.3085,-88.1395,2.069,18.57,1111122 
DISL,ioos:station:DISL:CATA:1,2012-07-05T06:30:00Z,30.3085,-88.1395,2.08,18.63,1111122 
DISL,ioos:station:DISL:CATA:1,2012-07-05T07:00:00Z,30.3085,-88.1395,2.097,19.12,1111122 
DISL,ioos:station:DISL:CATA:1,2012-07-05T07:30:00Z,30.3085,-88.1395,2.12,19.1,1111122 
DISL,ioos:station:DISL:CATA:1,2012-07-05T08:00:00Z,30.3085,-88.1395,2.129,19.09,1111122 
DISL,ioos:station:DISL:CATA:1,2012-07-05T08:30:00Z,30.3085,-88.1395,2.148,19.45,1111122 
DISL,ioos:station:DISL:CATA:1,2012-07-05T09:00:00Z,30.3085,-88.1395,2.17,19.6,1111122 
DISL,ioos:station:DISL:CATA:1,2012-07-05T09:30:00Z,30.3085,-88.1395,2.193,19.61,1111122 
DISL,ioos:station:DISL:CATA:1,2012-07-05T10:00:00Z,30.3085,-88.1395,2.22,19.72,1111122 
DISL,ioos:station:DISL:CATA:1,2012-07-05T10:30:00Z,30.3085,-88.1395,2.241,19.78,1111122 
DISL,ioos:station:DISL:CATA:1,2012-07-05T11:00:00Z,30.3085,-88.1395,2.265,20.0,1111122 
DISL,ioos:station:DISL:CATA:1,2012-07-05T11:30:00Z,30.3085,-88.1395,2.287,20.09,1111122 
DISL,ioos:station:DISL:CATA:1,2012-07-05T12:00:00Z,30.3085,-88.1395,2.323,20.02,1111122 
DISL,ioos:station:DISL:CATA:1,2012-07-05T12:30:00Z,30.3085,-88.1395,2.361,20.01,1111122 
DISL,ioos:station:DISL:CATA:1,2012-07-05T13:00:00Z,30.3085,-88.1395,2.401,20.03,1111122 
DISL,ioos:station:DISL:CATA:1,2012-07-05T13:30:00Z,30.3085,-88.1395,2.437,20.06,1111122 
DISL,ioos:station:DISL:CATA:1,2012-07-05T14:00:00Z,30.3085,-88.1395,2.457,20.18,1111122 
DISL,ioos:station:DISL:CATA:1,2012-07-05T14:30:00Z,30.3085,-88.1395,2.486,20.23,1111122 
DISL,ioos:station:DISL:CATA:1,2012-07-05T15:00:00Z,30.3085,-88.1395,2.517,20.47,1111122 
DISL,ioos:station:DISL:CATA:1,2012-07-05T15:30:00Z,30.3085,-88.1395,2.534,20.51,1111122 
DISL,ioos:station:DISL:CATA:1,2012-07-05T16:00:00Z,30.3085,-88.1395,2.551,20.81,1111122 
DISL,ioos:station:DISL:CATA:1,2012-07-05T16:30:00Z,30.3085,-88.1395,2.56,20.79,1111122 
DISL,ioos:station:DISL:CATA:1,2012-07-05T17:00:00Z,30.3085,-88.1395,2.562,20.8,1111122 
DISL,ioos:station:DISL:CATA:1,2012-07-05T17:30:00Z,30.3085,-88.1395,2.563,20.88,1111122 
DISL,ioos:station:DISL:CATA:1,2012-07-05T18:00:00Z,30.3085,-88.1395,2.563,20.96,1111122 
DISL,ioos:station:DISL:CATA:1,2012-07-05T18:30:00Z,30.3085,-88.1395,2.556,21.02,1111122 
DISL,ioos:station:DISL:CATA:1,2012-07-05T19:00:00Z,30.3085,-88.1395,2.549,21.6,1111122 
DISL,ioos:station:DISL:CATA:1,2012-07-05T19:30:00Z,30.3085,-88.1395,2.532,21.9,1111122 
DISL,ioos:station:DISL:CATA:1,2012-07-05T20:00:00Z,30.3085,-88.1395,2.504,22.1,1111122 
DISL,ioos:station:DISL:CATA:1,2012-07-05T20:30:00Z,30.3085,-88.1395,2.484,22.25,1111122 
DISL,ioos:station:DISL:CATA:1,2012-07-05T21:00:00Z,30.3085,-88.1395,2.441,22.26,1111122 
DISL,ioos:station:DISL:CATA:1,2012-07-05T21:30:00Z,30.3085,-88.1395,2.4,22.22,1111122 
DISL,ioos:station:DISL:CATA:1,2012-07-05T22:00:00Z,30.3085,-88.1395,2.351,22.41,1111122 
DISL,ioos:station:DISL:CATA:1,2012-07-05T22:30:00Z,30.3085,-88.1395,2.314,21.76,1111122 
DISL,ioos:station:DISL:CATA:1,2012-07-05T23:00:00Z,30.3085,-88.1395,2.273,20.16,1111122 
DISL,ioos:station:DISL:CATA:1,2012-07-05T23:30:00Z,30.3085,-88.1395,2.239,19.78,1111122 
DISL,ioos:station:DISL:CATA:1,2012-07-06T00:00:00Z,30.3085,-88.1395,2.206,19.85,1111122 
DISL,ioos:station:DISL:CATA:1,2012-07-06T00:30:00Z,30.3085,-88.1395,2.179,19.99,1111122 
DISL,ioos:station:DISL:CATA:1,2012-07-06T01:00:00Z,30.3085,-88.1395,2.152,21.02,1111122 
DISL,ioos:station:DISL:CATA:1,2012-07-06T01:30:00Z,30.3085,-88.1395,2.136,22.24,1111122 
DISL,ioos:station:DISL:CATA:1,2012-07-06T02:00:00Z,30.3085,-88.1395,2.127,22.77,1111122 
DISL,ioos:station:DISL:CATA:1,2012-07-06T02:30:00Z,30.3085,-88.1395,2.123,22.89,1111122 
DISL,ioos:station:DISL:CATA:1,2012-07-06T03:00:00Z,30.3085,-88.1395,2.109,23.02,1111122 
DISL,ioos:station:DISL:CATA:1,2012-07-06T03:30:00Z,30.3085,-88.1395,2.108,23.24,1111122 
DISL,ioos:station:DISL:CATA:1,2012-07-06T04:00:00Z,30.3085,-88.1395,2.099,23.54,1111122 
DISL,ioos:station:DISL:CATA:1,2012-07-06T04:30:00Z,30.3085,-88.1395,2.103,23.65,1111122 
DISL,ioos:station:DISL:CATA:1,2012-07-06T05:00:00Z,30.3085,-88.1395,2.097,23.64,1111122 
DISL,ioos:station:DISL:CATA:1,2012-07-06T05:30:00Z,30.3085,-88.1395,2.102,23.59,1111122 
DISL,ioos:station:DISL:CATA:1,2012-07-06T06:00:00Z,30.3085,-88.1395,2.114,22.05,1111122 
DISL,ioos:station:DISL:CATA:1,2012-07-06T06:30:00Z,30.3085,-88.1395,2.121,21.04,1111122 
DISL,ioos:station:DISL:CATA:1,2012-07-06T07:00:00Z,30.3085,-88.1395,2.136,21.51,1111122 
DISL,ioos:station:DISL:CATA:1,2012-07-06T07:30:00Z,30.3085,-88.1395,2.147,21.58,1111122 
DISL,ioos:station:DISL:CATA:1,2012-07-06T08:00:00Z,30.3085,-88.1395,2.159,20.85,1111122 
DISL,ioos:station:DISL:CATA:1,2012-07-06T08:30:00Z,30.3085,-88.1395,2.184,20.02,1111122 
DISL,ioos:station:DISL:CATA:1,2012-07-06T09:00:00Z,30.3085,-88.1395,2.195,20.51,1111122 
DISL,ioos:station:DISL:CATA:1,2012-07-06T09:30:00Z,30.3085,-88.1395,2.212,21.03,1111122 
DISL,ioos:station:DISL:CATA:1,2012-07-06T10:00:00Z,30.3085,-88.1395,2.218,20.83,1111122 
DISL,ioos:station:DISL:CATA:1,2012-07-06T10:30:00Z,30.3085,-88.1395,2.233,20.85,1111122 
DISL,ioos:station:DISL:CATA:1,2012-07-06T11:00:00Z,30.3085,-88.1395,2.257,20.76,1111122 
DISL,ioos:station:DISL:CATA:1,2012-07-06T11:30:00Z,30.3085,-88.1395,2.28,20.9,1111122 
DISL,ioos:station:DISL:CATA:1,2012-07-06T12:00:00Z,30.3085,-88.1395,2.286,21.13,1111122 
DISL,ioos:station:DISL:CATA:1,2012-07-06T12:30:00Z,30.3085,-88.1395,2.313,21.6,1111122 
DISL,ioos:station:DISL:CATA:1,2012-07-06T13:00:00Z,30.3085,-88.1395,2.344,21.73,1111122 
DISL,ioos:station:DISL:CATA:1,2012-07-06T13:30:00Z,30.3085,-88.1395,2.368,21.79,1111122 
DISL,ioos:station:DISL:CATA:1,2012-07-06T14:00:00Z,30.3085,-88.1395,2.44,21.83,1111122 